contact:dominique.lefevre@mio.osupytheas.fr, maurice.libes@osupytheas.fr, didier.mallarino@osupytheas.fr
Project:EMSO http://www.emso-fr.org/EMSO-France
Depth: 2436.0 m
Title:EMSO Ligure Ouest : Data MII capteur AQUADOPP
Date,Latitude,Longitude,X_East,Y_North,Z_Up,Amplitude_X,Amplitude_Y,Amplitude_Z,Batterie,SoundSpeed,Heading,Pitch,Roll,Pressure,TIS,Speed,Direction
, degrees North, degrees East, m.s-1, m.s-1,m.s-1, 1, 1, 1, Volt, m.s-1, degree, degree, degree, dbar, degree_C, m.s-1, degree
2022-11-20T00:04:03,42.805,6.029,0.003,-0.041,-0.01,100.0,100.0,99.0,13.4,1505.2,326.6,-0.8,1.8,2471.139,13.28,0.041,175.8
2022-11-20T00:07:03,42.805,6.029,-0.001,-0.021,0.044,99.0,99.0,98.0,13.4,1505.2,323.7,-0.7,1.8,2471.104,13.28,0.021,182.7
2022-11-20T00:10:03,42.805,6.029,-0.032,0.008,0.033,98.0,98.0,99.0,13.4,1505.2,320.4,-0.7,1.8,2471.118,13.28,0.032,284.0
2022-11-20T00:13:03,42.805,6.029,-0.001,-0.007,0.005,98.0,101.0,98.0,13.4,1505.2,328.9,-0.8,1.8,2471.122,13.28,0.007,188.1
2022-11-20T00:16:03,42.805,6.029,0.001,-0.017,-0.002,99.0,99.0,99.0,13.4,1505.2,322.3,-0.8,1.8,2471.13,13.28,0.017,176.6
2022-11-20T00:19:03,42.805,6.029,0.02,-0.006,0.049,98.0,100.0,98.0,13.4,1505.2,322.6,-0.8,1.8,2471.091,13.28,0.02,106.7
2022-11-20T00:22:03,42.805,6.029,0.009,-0.026,0.045,98.0,100.0,99.0,13.3,1505.2,334.1,-0.7,1.8,2471.11,13.28,0.027,160.9
2022-11-20T00:25:03,42.805,6.029,0.04,-0.024,0.044,99.0,100.0,98.0,13.4,1505.2,335.5,-0.7,1.8,2471.066,13.29,0.046,121.0
2022-11-20T00:28:03,42.805,6.029,0.017,-0.011,0.042,99.0,102.0,98.0,13.4,1505.2,326.3,-0.8,1.8,2471.105,13.29,0.02,122.9
2022-11-20T00:31:03,42.805,6.029,-0.005,0.003,-0.005,99.0,100.0,98.0,13.4,1505.2,329.9,-0.7,1.8,2471.098,13.29,0.005,301.0
2022-11-20T00:34:03,42.805,6.029,0.033,-0.012,0.05,98.0,101.0,99.0,13.3,1505.2,323.4,-0.8,1.8,2471.133,13.29,0.035,110.0
2022-11-20T00:37:03,42.805,6.029,0.01,-0.02,0.02,99.0,98.0,99.0,13.3,1505.2,326.1,-0.8,1.8,2471.115,13.29,0.022,153.4
2022-11-20T00:40:03,42.805,6.029,0.026,-0.032,0.0,98.0,100.0,99.0,13.4,1505.2,319.3,-0.8,1.8,2471.12,13.29,0.041,140.9
2022-11-20T00:43:03,42.805,6.029,-0.018,-0.005,0.0,100.0,99.0,99.0,13.3,1505.2,334.5,-0.7,1.8,2471.113,13.29,0.018,254.5
2022-11-20T00:46:03,42.805,6.029,0.043,-0.018,0.054,100.0,100.0,98.0,13.4,1505.2,322.7,-0.8,1.8,2471.099,13.29,0.046,112.7
2022-11-20T00:49:03,42.805,6.029,0.003,-0.024,0.022,98.0,99.0,99.0,13.4,1505.2,323.9,-0.8,1.8,2471.082,13.29,0.024,172.9
2022-11-20T00:52:03,42.805,6.029,-0.003,0.022,0.039,99.0,100.0,99.0,13.3,1505.2,323.2,-0.8,1.8,2471.101,13.29,0.022,352.2
2022-11-20T00:55:03,42.805,6.029,-0.003,-0.044,0.007,100.0,98.0,99.0,13.4,1505.2,320.7,-0.8,1.8,2471.091,13.29,0.044,183.9
2022-11-20T00:58:03,42.805,6.029,-0.005,0.014,0.054,99.0,98.0,99.0,13.4,1505.2,318.0,-0.8,1.8,2471.089,13.29,0.014,340.4
2022-11-20T01:04:03,42.805,6.029,0.038,-0.016,0.037,101.0,101.0,100.0,13.4,1505.2,326.0,-0.8,1.8,2471.135,13.28,0.041,112.8
2022-11-20T01:07:03,42.805,6.029,0.035,-0.025,0.096,100.0,101.0,101.0,13.4,1505.2,330.1,-0.7,1.8,2471.151,13.28,0.043,125.5
2022-11-20T01:10:04,42.805,6.029,0.0,-0.014,0.007,99.0,100.0,99.0,13.4,1505.2,326.6,-0.7,1.8,2471.151,13.28,0.014,180.0
2022-11-20T01:13:03,42.805,6.029,0.0,-0.021,0.001,100.0,99.0,98.0,13.4,1505.2,316.3,-0.8,1.8,2471.167,13.28,0.021,180.0
2022-11-20T01:16:03,42.805,6.029,-0.002,-0.01,0.053,99.0,100.0,98.0,13.3,1505.2,324.1,-0.8,1.8,2471.126,13.28,0.01,191.3
2022-11-20T01:19:03,42.805,6.029,0.026,-0.012,0.047,99.0,100.0,99.0,13.4,1505.2,322.8,-0.8,1.8,2471.127,13.29,0.028,114.8
2022-11-20T01:22:03,42.805,6.029,-0.003,-0.009,0.009,98.0,99.0,99.0,13.3,1505.2,326.8,-0.8,1.8,2471.17,13.29,0.009,198.4
2022-11-20T01:25:03,42.805,6.029,0.056,-0.026,0.07,101.0,100.0,99.0,13.4,1505.2,331.2,-0.8,1.8,2471.135,13.29,0.061,114.9
2022-11-20T01:28:03,42.805,6.029,0.023,-0.018,0.021,100.0,99.0,99.0,13.3,1505.2,328.7,-0.8,1.8,2471.151,13.29,0.029,128.0
2022-11-20T01:31:03,42.805,6.029,0.003,-0.047,-0.005,98.0,100.0,99.0,13.4,1505.2,326.1,-0.8,1.8,2471.148,13.29,0.047,176.4
2022-11-20T01:34:03,42.805,6.029,0.017,-0.029,0.032,99.0,100.0,99.0,13.4,1505.2,323.2,-0.8,1.8,2471.14,13.29,0.033,149.6
2022-11-20T01:37:03,42.805,6.029,0.025,-0.037,0.002,99.0,99.0,99.0,13.4,1505.2,327.1,-0.8,1.8,2471.157,13.29,0.044,146.0
2022-11-20T01:40:03,42.805,6.029,0.02,-0.018,-0.007,98.0,101.0,99.0,13.4,1505.2,320.9,-0.8,1.8,2471.145,13.29,0.026,132.0
2022-11-20T01:43:03,42.805,6.029,0.001,-0.017,0.023,99.0,99.0,99.0,13.3,1505.2,318.5,-0.8,1.8,2471.125,13.29,0.017,176.6
2022-11-20T01:46:03,42.805,6.029,-0.004,-0.031,0.004,98.0,101.0,100.0,13.4,1505.2,334.8,-0.8,1.8,2471.13,13.29,0.031,187.3
2022-11-20T01:49:03,42.805,6.029,0.018,-0.019,0.014,98.0,100.0,99.0,13.4,1505.2,327.8,-0.8,1.8,2471.159,13.29,0.026,136.5
2022-11-20T01:52:03,42.805,6.029,-0.006,-0.009,0.017,99.0,99.0,99.0,13.4,1505.2,337.0,-0.8,1.8,2471.13,13.29,0.01,213.7
2022-11-20T01:55:03,42.805,6.029,-0.008,-0.023,0.005,98.0,100.0,99.0,13.4,1505.2,333.4,-0.8,1.8,2471.142,13.29,0.024,199.2
2022-11-20T01:58:03,42.805,6.029,0.0,-0.008,0.05,100.0,100.0,98.0,13.3,1505.2,321.0,-0.8,1.8,2471.202,13.29,0.008,180.0
2022-11-20T02:04:03,42.805,6.029,0.012,-0.047,-0.021,99.0,100.0,101.0,13.3,1505.2,329.2,-0.7,1.8,2471.175,13.28,0.048,165.7
2022-11-20T02:07:03,42.805,6.029,0.017,-0.037,-0.006,98.0,102.0,99.0,13.4,1505.2,320.1,-0.7,1.8,2471.211,13.28,0.04,155.3
2022-11-20T02:10:03,42.805,6.029,0.028,-0.047,-0.002,100.0,99.0,99.0,13.3,1505.2,332.4,-0.8,1.8,2471.181,13.28,0.054,149.2
2022-11-20T02:13:03,42.805,6.029,-0.002,-0.02,-0.016,99.0,101.0,99.0,13.4,1505.2,323.1,-0.8,1.8,2471.171,13.28,0.02,185.7
2022-11-20T02:16:03,42.805,6.029,0.001,-0.017,-0.004,100.0,99.0,99.0,13.4,1505.2,326.7,-0.8,1.8,2471.195,13.28,0.017,176.6
2022-11-20T02:19:03,42.805,6.029,0.013,-0.011,0.03,99.0,99.0,100.0,13.4,1505.2,322.2,-0.8,1.8,2471.191,13.28,0.017,130.2
2022-11-20T02:22:03,42.805,6.029,0.009,-0.032,0.0,99.0,101.0,100.0,13.3,1505.2,317.6,-0.8,1.9,2471.186,13.28,0.033,164.3
2022-11-20T02:25:03,42.805,6.029,0.015,-0.034,0.0,101.0,99.0,98.0,13.4,1505.2,331.9,-0.7,1.9,2471.148,13.28,0.037,156.2
2022-11-20T02:28:03,42.805,6.029,0.007,-0.006,0.052,97.0,100.0,100.0,13.4,1505.2,322.6,-0.7,1.8,2471.211,13.28,0.009,130.6
2022-11-20T02:31:03,42.805,6.029,0.009,-0.038,0.003,99.0,100.0,98.0,13.4,1505.2,328.2,-0.8,1.8,2471.158,13.28,0.039,166.7
2022-11-20T02:34:03,42.805,6.029,0.008,-0.016,0.018,99.0,99.0,99.0,13.4,1505.2,324.6,-0.7,1.8,2471.162,13.29,0.017,153.4
2022-11-20T02:37:03,42.805,6.029,0.039,-0.028,0.018,98.0,101.0,99.0,13.3,1505.2,322.7,-0.8,1.8,2471.204,13.28,0.048,125.7
2022-11-20T02:40:03,42.805,6.029,-0.018,-0.006,0.03,99.0,100.0,99.0,13.3,1505.2,323.8,-0.7,1.8,2471.169,13.29,0.018,251.6
2022-11-20T02:43:03,42.805,6.029,0.02,-0.026,0.007,99.0,100.0,99.0,13.3,1505.2,319.1,-0.8,1.8,2471.168,13.29,0.032,142.4
2022-11-20T02:46:03,42.805,6.029,0.018,-0.006,0.048,100.0,100.0,99.0,13.4,1505.2,333.0,-0.8,1.8,2471.131,13.29,0.018,108.4
2022-11-20T02:49:03,42.805,6.029,0.045,-0.023,0.072,99.0,99.0,99.0,13.4,1505.2,323.6,-0.8,1.8,2471.185,13.29,0.05,117.1
2022-11-20T02:52:03,42.805,6.029,-0.014,-0.025,-0.007,100.0,100.0,97.0,13.4,1505.2,319.6,-0.8,1.8,2471.194,13.29,0.028,209.3
2022-11-20T02:55:03,42.805,6.029,0.008,-0.022,-0.012,97.0,100.0,99.0,13.3,1505.2,319.4,-0.8,1.8,2471.198,13.29,0.023,160.0
2022-11-20T02:58:03,42.805,6.029,0.017,-0.055,-0.011,100.0,101.0,98.0,13.4,1505.2,329.2,-0.8,1.8,2471.236,13.29,0.057,162.8
2022-11-20T03:04:03,42.805,6.029,0.012,-0.01,0.021,99.0,100.0,99.0,13.4,1505.2,316.3,-0.8,1.8,2471.221,13.28,0.015,129.8
2022-11-20T03:07:03,42.805,6.029,0.009,-0.025,0.008,98.0,101.0,100.0,13.4,1505.2,328.2,-0.8,1.8,2471.234,13.28,0.026,160.2
2022-11-20T03:10:03,42.805,6.029,-0.014,-0.017,-0.014,99.0,99.0,99.0,13.4,1505.2,327.8,-0.8,1.8,2471.253,13.28,0.022,219.5
2022-11-20T03:13:03,42.805,6.029,0.025,-0.044,-0.015,99.0,99.0,99.0,13.4,1505.2,321.8,-0.8,1.8,2471.224,13.28,0.05,150.4
2022-11-20T03:16:03,42.805,6.029,0.008,-0.009,0.029,99.0,99.0,99.0,13.4,1505.2,324.8,-0.8,1.8,2471.194,13.28,0.012,138.4
2022-11-20T03:19:03,42.805,6.029,0.017,0.0,0.031,97.0,101.0,100.0,13.4,1505.2,334.4,-0.8,1.8,2471.196,13.28,0.017,90.0
2022-11-20T03:22:03,42.805,6.029,0.017,-0.03,0.018,100.0,101.0,97.0,13.4,1505.2,329.7,-0.7,1.8,2471.234,13.28,0.034,150.5
2022-11-20T03:25:03,42.805,6.029,0.001,-0.032,-0.004,99.0,101.0,98.0,13.3,1505.2,332.7,-0.8,1.8,2471.208,13.28,0.032,178.2
2022-11-20T03:28:03,42.805,6.029,0.005,-0.007,0.022,100.0,100.0,99.0,13.4,1505.2,326.1,-0.8,1.8,2471.183,13.28,0.008,144.5
2022-11-20T03:31:03,42.805,6.029,0.025,-0.013,0.034,97.0,100.0,100.0,13.4,1505.2,327.8,-0.8,1.8,2471.23,13.29,0.028,117.5
2022-11-20T03:34:03,42.805,6.029,0.011,-0.033,0.002,100.0,98.0,99.0,13.4,1505.2,324.2,-0.7,1.8,2471.162,13.28,0.034,161.6
2022-11-20T03:37:03,42.805,6.029,0.013,-0.012,0.019,100.0,100.0,99.0,13.4,1505.2,322.9,-0.7,1.8,2471.211,13.28,0.017,132.7
2022-11-20T03:40:03,42.805,6.029,0.007,-0.037,-0.007,100.0,99.0,99.0,13.3,1505.2,327.4,-0.7,1.8,2471.177,13.29,0.037,169.3
2022-11-20T03:43:03,42.805,6.029,0.046,-0.021,0.029,99.0,101.0,99.0,13.4,1505.2,321.2,-0.7,1.8,2471.246,13.29,0.05,114.5
2022-11-20T03:46:03,42.805,6.029,0.003,-0.041,-0.006,99.0,100.0,98.0,13.4,1505.2,334.1,-0.8,1.8,2471.195,13.29,0.041,175.8
2022-11-20T03:49:03,42.805,6.029,0.003,-0.012,0.033,98.0,101.0,99.0,13.4,1505.2,326.4,-0.8,1.8,2471.227,13.29,0.012,166.0
2022-11-20T03:52:03,42.805,6.029,0.015,-0.032,-0.031,97.0,100.0,100.0,13.4,1505.2,325.9,-0.7,1.8,2471.193,13.29,0.035,154.9
2022-11-20T03:55:03,42.805,6.029,0.028,-0.033,0.027,98.0,100.0,99.0,13.4,1505.2,333.7,-0.8,1.8,2471.168,13.28,0.043,139.7
2022-11-20T03:58:03,42.805,6.029,0.003,-0.007,-0.006,99.0,99.0,98.0,13.4,1505.2,323.3,-0.7,1.8,2471.172,13.29,0.007,156.8
2022-11-20T04:04:03,42.805,6.029,0.025,-0.017,0.002,97.0,101.0,98.0,13.4,1505.2,316.4,-0.8,1.8,2471.283,13.28,0.03,124.2
2022-11-20T04:07:03,42.805,6.029,0.02,-0.03,0.011,99.0,100.0,99.0,13.4,1505.2,331.7,-0.7,1.8,2471.23,13.28,0.036,146.3
2022-11-20T04:10:03,42.805,6.029,0.011,-0.023,0.012,99.0,100.0,99.0,13.3,1505.2,330.3,-0.7,1.8,2471.252,13.28,0.025,154.4
2022-11-20T04:13:03,42.805,6.029,-0.013,0.001,0.024,100.0,99.0,99.0,13.4,1505.2,331.9,-0.8,1.8,2471.21,13.28,0.013,274.4
2022-11-20T04:16:03,42.805,6.029,0.003,-0.024,-0.013,99.0,99.0,100.0,13.4,1505.2,321.7,-0.8,1.8,2471.199,13.28,0.024,172.9
2022-11-20T04:19:03,42.805,6.029,0.022,-0.022,0.008,99.0,99.0,99.0,13.4,1505.2,317.4,-0.8,1.8,2471.239,13.28,0.031,135.0
2022-11-20T04:22:03,42.805,6.029,0.003,-0.036,-0.023,99.0,99.0,99.0,13.3,1505.2,323.2,-0.7,1.8,2471.187,13.28,0.036,175.2
2022-11-20T04:25:03,42.805,6.029,-0.01,0.003,0.049,99.0,99.0,99.0,13.4,1505.2,321.8,-0.8,1.8,2471.209,13.28,0.01,286.7
2022-11-20T04:28:03,42.805,6.029,0.01,-0.053,-0.044,99.0,100.0,99.0,13.4,1505.2,332.5,-0.8,1.8,2471.188,13.28,0.053,169.3
2022-11-20T04:31:03,42.805,6.029,-0.004,-0.035,-0.014,99.0,101.0,98.0,13.3,1505.2,322.7,-0.7,1.8,2471.222,13.28,0.035,186.5
2022-11-20T04:34:03,42.805,6.029,-0.006,-0.009,0.02,97.0,100.0,99.0,13.4,1505.2,327.8,-0.7,1.8,2471.21,13.28,0.01,213.7
2022-11-20T04:37:03,42.805,6.029,0.023,-0.041,-0.013,97.0,101.0,100.0,13.4,1505.2,321.1,-0.7,1.8,2471.199,13.28,0.047,150.7
2022-11-20T04:40:03,42.805,6.029,0.007,-0.024,0.022,98.0,100.0,99.0,13.3,1505.2,324.0,-0.8,1.8,2471.194,13.28,0.025,163.7
2022-11-20T04:43:03,42.805,6.029,0.005,-0.014,0.027,98.0,99.0,99.0,13.4,1505.2,331.4,-0.8,1.8,2471.198,13.28,0.014,160.4
2022-11-20T04:46:03,42.805,6.029,0.022,-0.012,-0.001,99.0,99.0,99.0,13.4,1505.2,319.1,-0.8,1.8,2471.217,13.28,0.025,118.6
2022-11-20T04:49:03,42.805,6.029,0.014,-0.033,-0.017,98.0,99.0,99.0,13.3,1505.2,328.0,-0.8,1.8,2471.239,13.29,0.035,157.0
2022-11-20T04:52:03,42.805,6.029,0.014,-0.012,0.043,99.0,100.0,99.0,13.4,1505.2,318.4,-0.7,1.8,2471.195,13.29,0.018,130.6
2022-11-20T04:55:03,42.805,6.029,0.02,-0.037,-0.021,100.0,98.0,99.0,13.3,1505.2,329.2,-0.8,1.9,2471.187,13.28,0.042,151.6
2022-11-20T04:58:03,42.805,6.029,0.019,-0.035,0.0,99.0,99.0,98.0,13.4,1505.2,328.7,-0.7,1.9,2471.209,13.28,0.039,151.5
2022-11-20T05:04:03,42.805,6.029,0.043,-0.026,0.021,99.0,100.0,99.0,13.3,1505.2,325.4,-0.7,1.8,2471.268,13.28,0.05,121.2
2022-11-20T05:07:03,42.805,6.029,0.034,-0.057,-0.051,99.0,100.0,99.0,13.4,1505.2,322.6,-0.8,1.8,2471.243,13.28,0.066,149.2
2022-11-20T05:10:03,42.805,6.029,0.023,-0.003,0.031,99.0,99.0,99.0,13.3,1505.2,326.7,-0.7,1.8,2471.259,13.28,0.023,97.4
2022-11-20T05:13:03,42.805,6.029,0.038,-0.037,0.002,98.0,99.0,99.0,13.4,1505.2,326.5,-0.8,1.8,2471.231,13.28,0.053,134.2
2022-11-20T05:16:03,42.805,6.029,0.033,-0.037,-0.005,100.0,99.0,98.0,13.4,1505.2,328.2,-0.8,1.9,2471.224,13.28,0.049,138.3
2022-11-20T05:19:03,42.805,6.029,0.015,-0.019,0.004,98.0,99.0,99.0,13.3,1505.2,323.2,-0.8,1.8,2471.216,13.28,0.024,141.7
2022-11-20T05:22:03,42.805,6.029,-0.005,-0.013,0.013,99.0,100.0,99.0,13.4,1505.2,323.1,-0.8,1.8,2471.224,13.28,0.013,201.0
2022-11-20T05:25:03,42.805,6.029,0.0,-0.032,0.013,99.0,99.0,98.0,13.3,1505.2,319.1,-0.8,1.8,2471.226,13.28,0.032,180.0
2022-11-20T05:28:03,42.805,6.029,0.034,-0.059,-0.024,99.0,100.0,98.0,13.4,1505.2,321.2,-0.7,1.8,2471.231,13.28,0.068,150.0
2022-11-20T05:31:03,42.805,6.029,0.016,-0.023,0.0,98.0,99.0,99.0,13.3,1505.2,331.6,-0.7,1.8,2471.227,13.28,0.028,145.2
2022-11-20T05:34:03,42.805,6.029,0.021,-0.034,0.001,99.0,99.0,99.0,13.3,1505.2,325.4,-0.8,1.8,2471.244,13.29,0.039,148.3
2022-11-20T05:37:03,42.805,6.029,0.021,-0.076,-0.065,99.0,100.0,99.0,13.4,1505.2,327.9,-0.8,1.8,2471.212,13.28,0.078,164.6
2022-11-20T05:40:03,42.805,6.029,0.016,-0.012,0.022,99.0,101.0,99.0,13.4,1505.2,324.4,-0.8,1.9,2471.176,13.28,0.02,126.9
2022-11-20T05:43:03,42.805,6.029,0.045,-0.046,0.01,101.0,100.0,98.0,13.4,1505.2,322.7,-0.8,1.8,2471.19,13.28,0.064,135.6
2022-11-20T05:46:03,42.805,6.029,0.027,-0.035,0.026,100.0,99.0,98.0,13.3,1505.2,328.7,-0.8,1.8,2471.191,13.29,0.044,142.3
2022-11-20T05:49:03,42.805,6.029,-0.001,-0.005,0.023,99.0,100.0,98.0,13.3,1505.2,329.0,-0.8,1.8,2471.207,13.29,0.005,191.3
2022-11-20T05:52:03,42.805,6.029,0.038,0.003,0.046,98.0,101.0,98.0,13.3,1505.2,317.3,-0.7,1.8,2471.248,13.28,0.038,85.5
2022-11-20T05:55:03,42.805,6.029,0.064,-0.045,0.017,99.0,100.0,98.0,13.4,1505.2,335.1,-0.8,1.8,2471.235,13.29,0.078,125.1
2022-11-20T05:58:03,42.805,6.029,0.003,-0.034,-0.021,100.0,100.0,98.0,13.4,1505.2,328.4,-0.8,1.8,2471.2,13.29,0.034,175.0
2022-11-20T06:04:03,42.805,6.029,0.009,-0.022,0.016,99.0,99.0,99.0,13.4,1505.2,330.7,-0.8,1.8,2471.237,13.28,0.023,157.8
2022-11-20T06:07:03,42.805,6.029,0.022,-0.039,-0.005,100.0,99.0,99.0,13.4,1505.2,325.3,-0.8,1.8,2471.226,13.28,0.044,150.6
2022-11-20T06:10:03,42.805,6.029,0.023,-0.022,0.016,99.0,99.0,99.0,13.4,1505.2,323.4,-0.8,1.8,2471.263,13.28,0.031,133.7
2022-11-20T06:13:03,42.805,6.029,-0.022,0.017,0.036,99.0,99.0,99.0,13.4,1505.2,320.0,-0.8,1.8,2471.202,13.28,0.027,307.7
2022-11-20T06:16:03,42.805,6.029,0.008,-0.04,-0.027,98.0,99.0,99.0,13.4,1505.2,335.1,-0.8,1.8,2471.201,13.28,0.04,168.7
2022-11-20T06:19:03,42.805,6.029,0.005,-0.011,0.006,98.0,100.0,99.0,13.4,1505.2,329.3,-0.8,1.8,2471.228,13.28,0.012,155.6
2022-11-20T06:22:03,42.805,6.029,0.032,-0.059,-0.008,99.0,100.0,99.0,13.3,1505.2,331.2,-0.8,1.8,2471.22,13.28,0.067,151.5
2022-11-20T06:25:03,42.805,6.029,0.017,-0.028,0.009,99.0,100.0,98.0,13.3,1505.2,319.4,-0.7,1.8,2471.17,13.28,0.032,148.7
2022-11-20T06:28:03,42.805,6.029,0.008,-0.023,0.002,98.0,100.0,99.0,13.4,1505.2,327.3,-0.8,1.8,2471.222,13.28,0.024,160.8
2022-11-20T06:31:03,42.805,6.029,0.04,-0.016,0.01,98.0,99.0,99.0,13.3,1505.2,323.4,-0.7,1.8,2471.185,13.28,0.043,111.8
2022-11-20T06:34:03,42.805,6.029,0.023,-0.016,0.001,99.0,101.0,98.0,13.4,1505.2,319.1,-0.8,1.8,2471.172,13.28,0.028,124.8
2022-11-20T06:37:03,42.805,6.029,0.016,-0.033,0.001,99.0,99.0,99.0,13.4,1505.2,326.4,-0.8,1.8,2471.19,13.28,0.036,154.1
2022-11-20T06:40:03,42.805,6.029,-0.003,-0.041,-0.023,98.0,100.0,98.0,13.4,1505.2,332.1,-0.7,1.8,2471.211,13.28,0.041,184.2
2022-11-20T06:43:03,42.805,6.029,-0.025,-0.043,-0.052,99.0,99.0,99.0,13.3,1505.2,328.6,-0.8,1.8,2471.211,13.28,0.049,210.2
2022-11-20T06:46:03,42.805,6.029,0.005,-0.031,-0.008,98.0,99.0,100.0,13.4,1505.2,320.8,-0.8,1.8,2471.194,13.28,0.031,170.8
2022-11-20T06:49:03,42.805,6.029,-0.009,-0.023,-0.014,99.0,99.0,99.0,13.4,1505.2,331.6,-0.8,1.8,2471.201,13.29,0.024,201.4
2022-11-20T06:52:03,42.805,6.029,0.007,-0.048,-0.015,100.0,100.0,98.0,13.4,1505.2,331.0,-0.8,1.8,2471.19,13.28,0.048,171.7
2022-11-20T06:55:03,42.805,6.029,0.001,-0.028,0.025,100.0,99.0,98.0,13.3,1505.2,333.4,-0.7,1.8,2471.177,13.28,0.028,178.0
2022-11-20T06:58:03,42.805,6.029,0.019,-0.013,0.016,99.0,98.0,99.0,13.4,1505.2,320.7,-0.8,1.8,2471.209,13.29,0.023,124.4
2022-11-20T07:04:03,42.805,6.029,0.034,-0.053,-0.015,99.0,100.0,99.0,13.4,1505.2,325.7,-0.8,1.8,2471.203,13.28,0.062,147.3
2022-11-20T07:07:03,42.805,6.029,0.014,-0.022,0.036,99.0,99.0,99.0,13.4,1505.2,318.8,-0.7,1.8,2471.19,13.28,0.026,147.5
2022-11-20T07:10:03,42.805,6.029,0.014,-0.041,-0.022,101.0,99.0,98.0,13.4,1505.2,322.1,-0.7,1.8,2471.23,13.28,0.043,161.1
2022-11-20T07:13:03,42.805,6.029,0.011,-0.05,-0.029,99.0,99.0,99.0,13.4,1505.2,328.6,-0.8,1.9,2471.219,13.28,0.051,167.6
2022-11-20T07:16:03,42.805,6.029,0.0,-0.033,-0.007,98.0,99.0,99.0,13.4,1505.2,323.7,-0.8,1.8,2471.212,13.28,0.033,180.0
2022-11-20T07:19:03,42.805,6.029,-0.019,0.011,0.044,98.0,101.0,99.0,13.3,1505.2,320.8,-0.7,1.8,2471.25,13.28,0.021,300.1
2022-11-20T07:22:03,42.805,6.029,0.018,-0.036,0.0,99.0,100.0,99.0,13.4,1505.2,335.1,-0.8,1.8,2471.163,13.29,0.04,153.4
2022-11-20T07:25:03,42.805,6.029,0.022,-0.027,0.013,101.0,99.0,98.0,13.3,1505.2,326.8,-0.8,1.8,2471.181,13.28,0.034,140.8
2022-11-20T07:28:03,42.805,6.029,0.004,-0.015,0.023,100.0,98.0,101.0,13.3,1505.2,327.5,-0.7,1.8,2471.157,13.29,0.015,165.1
2022-11-20T07:31:03,42.805,6.029,0.025,-0.043,0.0,99.0,101.0,99.0,13.4,1505.2,325.0,-0.8,1.8,2471.191,13.28,0.049,149.8
2022-11-20T07:34:03,42.805,6.029,0.006,-0.058,-0.051,100.0,100.0,99.0,13.4,1505.2,322.0,-0.8,1.8,2471.225,13.29,0.058,174.1
2022-11-20T07:37:03,42.805,6.029,-0.006,-0.045,-0.026,98.0,102.0,99.0,13.4,1505.2,327.0,-0.8,1.8,2471.222,13.29,0.045,187.6
2022-11-20T07:40:03,42.805,6.029,0.029,-0.025,0.031,100.0,100.0,99.0,13.4,1505.2,323.4,-0.8,1.8,2471.168,13.29,0.038,130.8
2022-11-20T07:43:03,42.805,6.029,0.042,-0.069,-0.026,99.0,100.0,99.0,13.4,1505.2,320.9,-0.8,1.8,2471.211,13.29,0.08,148.7
2022-11-20T07:46:03,42.805,6.029,0.022,-0.027,0.004,100.0,100.0,98.0,13.4,1505.2,322.9,-0.8,1.8,2471.194,13.29,0.034,140.8
2022-11-20T07:49:03,42.805,6.029,0.053,-0.027,-0.026,98.0,100.0,100.0,13.4,1505.2,317.2,-0.8,1.8,2471.181,13.29,0.059,117.0
2022-11-20T07:52:03,42.805,6.029,0.053,-0.019,0.029,97.0,100.0,100.0,13.4,1505.2,325.3,-0.8,1.8,2471.176,13.29,0.056,109.7
2022-11-20T07:55:03,42.805,6.029,0.032,-0.048,-0.006,97.0,99.0,100.0,13.3,1505.2,325.0,-0.8,1.8,2471.155,13.29,0.057,146.3
2022-11-20T07:58:03,42.805,6.029,0.014,-0.027,-0.008,99.0,100.0,99.0,13.4,1505.2,328.3,-0.8,1.8,2471.149,13.29,0.03,152.6
2022-11-20T08:04:03,42.805,6.029,0.029,-0.025,0.032,99.0,100.0,99.0,13.3,1505.2,334.1,-0.8,1.8,2471.253,13.28,0.038,130.8
2022-11-20T08:07:03,42.805,6.029,0.014,-0.036,0.044,99.0,99.0,99.0,13.4,1505.2,335.4,-0.8,1.8,2471.196,13.28,0.038,158.8
2022-11-20T08:10:03,42.805,6.029,0.003,-0.026,-0.018,100.0,99.0,99.0,13.4,1505.2,320.9,-0.8,1.8,2471.187,13.28,0.026,173.4
2022-11-20T08:13:03,42.805,6.029,-0.021,-0.014,-0.004,99.0,99.0,99.0,13.4,1505.2,333.4,-0.7,1.8,2471.232,13.28,0.025,236.3
2022-11-20T08:16:03,42.805,6.029,-0.01,-0.045,-0.034,99.0,101.0,98.0,13.3,1505.2,336.9,-0.8,1.8,2471.222,13.28,0.046,192.5
2022-11-20T08:19:03,42.805,6.029,0.003,-0.037,0.0,100.0,99.0,98.0,13.4,1505.2,327.6,-0.8,1.9,2471.186,13.28,0.037,175.4
2022-11-20T08:22:03,42.805,6.029,0.029,-0.032,0.006,100.0,99.0,99.0,13.4,1505.2,316.8,-0.8,1.8,2471.151,13.29,0.043,137.8
2022-11-20T08:25:03,42.805,6.029,-0.015,-0.015,0.009,99.0,99.0,99.0,13.3,1505.2,329.6,-0.8,1.8,2471.197,13.29,0.021,225.0
2022-11-20T08:28:03,42.805,6.029,0.031,-0.045,-0.014,99.0,99.0,99.0,13.4,1505.2,320.3,-0.8,1.8,2471.179,13.29,0.054,145.4
2022-11-20T08:31:03,42.805,6.029,0.007,-0.005,0.009,99.0,99.0,98.0,13.4,1505.2,319.0,-0.8,1.8,2471.19,13.29,0.008,125.5
2022-11-20T08:34:03,42.805,6.029,0.011,-0.015,0.008,101.0,97.0,99.0,13.4,1505.2,327.7,-0.7,1.8,2471.147,13.29,0.018,143.7
2022-11-20T08:37:03,42.805,6.029,0.007,-0.008,0.04,100.0,99.0,99.0,13.3,1505.2,322.3,-0.8,1.8,2471.174,13.29,0.01,138.8
2022-11-20T08:40:03,42.805,6.029,0.037,-0.044,0.0,98.0,100.0,99.0,13.4,1505.2,324.2,-0.8,1.8,2471.13,13.29,0.057,139.9
2022-11-20T08:43:03,42.805,6.029,0.008,-0.035,0.0,100.0,100.0,99.0,13.4,1505.2,332.1,-0.8,1.8,2471.171,13.29,0.035,167.1
2022-11-20T08:46:03,42.805,6.029,-0.003,-0.025,0.009,98.0,99.0,99.0,13.3,1505.2,328.9,-0.7,1.9,2471.149,13.29,0.025,186.8
2022-11-20T08:49:03,42.805,6.029,-0.019,-0.018,0.011,99.0,100.0,98.0,13.4,1505.2,333.4,-0.8,1.9,2471.142,13.29,0.026,226.5
2022-11-20T08:52:03,42.805,6.029,-0.03,0.01,0.015,100.0,98.0,99.0,13.4,1505.2,328.7,-0.8,1.8,2471.13,13.29,0.031,288.4
2022-11-20T08:55:03,42.805,6.029,-0.002,0.002,0.013,98.0,100.0,97.0,13.4,1505.2,330.6,-0.8,1.8,2471.162,13.29,0.002,315.0
2022-11-20T08:58:03,42.805,6.029,0.011,-0.023,0.023,100.0,100.0,98.0,13.4,1505.2,335.8,-0.7,1.8,2471.154,13.29,0.025,154.4
2022-11-20T09:04:03,42.805,6.029,0.015,-0.051,-0.05,100.0,98.0,98.0,13.4,1505.2,316.3,-0.7,1.8,2471.188,13.28,0.053,163.6
2022-11-20T09:07:03,42.805,6.029,0.025,-0.047,-0.021,100.0,98.0,98.0,13.4,1505.2,332.7,-0.7,1.8,2471.196,13.28,0.053,152.0
2022-11-20T09:10:03,42.805,6.029,-0.003,-0.017,0.015,98.0,99.0,99.0,13.4,1505.2,322.1,-0.7,1.8,2471.136,13.28,0.017,190.0
2022-11-20T09:13:03,42.805,6.029,0.024,0.004,0.041,100.0,97.0,99.0,13.4,1505.2,320.6,-0.7,1.8,2471.155,13.28,0.024,80.5
2022-11-20T09:16:03,42.805,6.029,0.0,-0.029,-0.024,100.0,100.0,98.0,13.3,1505.2,325.4,-0.8,1.8,2471.157,13.28,0.028,180.0
2022-11-20T09:19:03,42.805,6.029,0.017,-0.042,0.024,98.0,99.0,99.0,13.4,1505.2,323.4,-0.8,1.8,2471.167,13.29,0.045,158.0
2022-11-20T09:22:03,42.805,6.029,-0.021,0.01,0.047,99.0,99.0,99.0,13.3,1505.2,329.6,-0.8,1.8,2471.147,13.29,0.023,295.5
2022-11-20T09:25:03,42.805,6.029,-0.011,-0.016,0.032,99.0,100.0,98.0,13.4,1505.2,318.0,-0.7,1.8,2471.168,13.29,0.019,214.5
2022-11-20T09:28:03,42.805,6.029,0.033,-0.034,0.022,98.0,100.0,98.0,13.4,1505.2,323.4,-0.8,1.8,2471.123,13.29,0.047,135.9
2022-11-20T09:31:03,42.805,6.029,-0.015,-0.012,0.028,100.0,98.0,98.0,13.3,1505.2,322.5,-0.8,1.8,2471.127,13.29,0.019,231.3
2022-11-20T09:34:03,42.805,6.029,0.029,-0.025,0.014,98.0,99.0,99.0,13.4,1505.2,323.4,-0.7,1.9,2471.125,13.29,0.038,130.8
2022-11-20T09:37:03,42.805,6.029,0.022,-0.033,0.023,98.0,99.0,99.0,13.4,1505.2,331.8,-0.8,1.8,2471.142,13.29,0.039,146.3
2022-11-20T09:40:03,42.805,6.029,0.021,-0.042,-0.005,100.0,101.0,97.0,13.4,1505.2,324.1,-0.7,1.8,2471.135,13.29,0.046,153.4
2022-11-20T09:43:03,42.805,6.029,0.022,-0.049,0.01,100.0,99.0,98.0,13.4,1505.2,328.9,-0.8,1.8,2471.117,13.29,0.053,155.8
2022-11-20T09:46:03,42.805,6.029,0.013,-0.036,-0.001,99.0,99.0,98.0,13.4,1505.2,332.1,-0.8,1.8,2471.149,13.29,0.038,160.1
2022-11-20T09:49:03,42.805,6.029,-0.008,-0.039,-0.01,101.0,99.0,97.0,13.4,1505.2,329.4,-0.7,1.8,2471.14,13.29,0.039,191.6
2022-11-20T09:52:03,42.805,6.029,-0.042,0.002,0.024,99.0,99.0,98.0,13.4,1505.2,335.4,-0.8,1.8,2471.138,13.29,0.042,272.7
2022-11-20T09:55:03,42.805,6.029,0.024,-0.034,0.001,98.0,100.0,99.0,13.3,1505.2,331.6,-0.7,1.8,2471.129,13.29,0.041,144.8
2022-11-20T09:58:03,42.805,6.029,0.024,-0.04,0.027,99.0,100.0,99.0,13.4,1505.2,329.7,-0.8,1.8,2471.146,13.29,0.046,149.0
2022-11-20T10:04:03,42.805,6.029,-0.014,-0.04,-0.014,98.0,100.0,98.0,13.4,1505.2,322.9,-0.8,1.8,2471.17,13.28,0.042,199.3
2022-11-20T10:07:02,42.805,6.029,0.034,-0.042,0.018,99.0,99.0,99.0,13.4,1505.2,323.9,-0.8,1.8,2471.156,13.28,0.054,141.0
2022-11-20T10:10:03,42.805,6.029,0.007,-0.031,0.014,100.0,100.0,98.0,13.4,1505.2,330.2,-0.8,1.8,2471.159,13.28,0.031,167.3